Date,TemperatureHighF,TemperatureAvgF,TemperatureLowF,DewpointHighF,DewpointAvgF,DewpointLowF,HumidityHigh,HumidityAvg,HumidityLow,PressureMaxIn,PressureMinIn,WindSpeedMaxMPH,WindSpeedAvgMPH,GustSpeedMaxMPH,PrecipitationSumIn
2013-1-1,30.0,14.3,5.5,2.0,-7.1,-12.0,51,38,2,30.28,30.16,11,1,11,0.00
2013-1-2,36.5,20.9,5.9,17.3,2.9,-11.0,68,47,19,30.20,30.03,28,1,28,0.00
2013-1-3,35.7,22.3,9.6,21.0,8.4,-11.9,76,57,19,30.34,30.10,28,3,28,0.00
2013-1-4,36.5,23.4,9.1,17.4,9.5,-2.2,70,56,35,30.30,30.18,28,3,28,0.00
2013-1-5,35.9,29.6,20.1,31.8,22.4,13.5,85,74,59,30.21,29.95,28,3,28,0.00
2013-1-6,27.5,20.1,14.0,18.0,9.0,4.5,72,62,47,30.31,29.98,20,3,22,0.00
2013-1-7,42.4,29.7,17.0,22.4,16.1,7.6,68,58,35,30.29,30.05,24,3,24,0.00
2013-1-8,45.1,36.0,28.7,26.5,23.2,18.8,68,60,46,30.10,29.96,17,2,17,0.00
2013-1-9,46.5,37.3,29.1,28.9,25.2,21.6,74,62,45,30.47,30.02,20,2,20,0.00
2013-1-10,40.1,33.9,27.1,37.1,25.3,19.4,96,72,46,30.46,29.78,28,1,28,0.20
2013-1-11,54.5,47.2,38.1,51.6,43.3,14.8,96,87,22,29.79,29.61,29,5,29,0.00
2013-1-12,53.0,33.2,18.6,42.6,21.4,6.8,75,62,46,30.04,29.64,30,7,30,0.00
2013-1-13,18.6,14.0,8.9,12.0,-0.8,-5.3,75,51,40,30.28,29.93,23,3,23,0.00
2013-1-14,28.0,15.3,5.9,1.3,-4.1,-11.9,58,44,19,30.47,30.27,12,0,12,0.00
2013-1-15,35.0,20.2,11.1,11.6,-1.1,-11.9,68,43,19,30.41,30.11,10,0,10,0.00
2013-1-16,37.9,27.7,15.2,29.0,11.8,-0.6,75,51,32,30.11,29.86,44,2,44,0.00
2013-1-17,35.6,26.6,18.6,27.5,5.0,-11.0,72,43,19,30.41,30.09,18,2,18,0.00
2013-1-18,49.2,37.1,22.2,26.6,19.7,7.3,58,50,37,30.40,29.90,31,6,34,0.00
2013-1-19,52.5,40.9,18.8,29.1,22.4,-11.9,60,48,19,30.13,29.78,42,6,42,0.00
2013-1-20,18.6,12.4,6.9,1.7,-7.4,-12.0,57,39,19,30.36,30.13,26,4,26,0.00
2013-1-21,10.7,4.2,-1.1,-3.9,-10.7,-11.8,51,33,19,30.33,30.22,27,6,27,0.00
2013-1-22,11.3,4.8,-3.6,-11.8,-11.8,-11.8,44,28,19,30.41,30.31,23,3,23,0.00
2013-1-23,29.3,16.6,9.1,-4.2,-10.9,-12.0,39,22,3,30.42,30.11,37,4,37,0.00
2013-1-24,19.5,11.7,2.1,0.0,-10.7,-11.8,24,19,19,30.63,30.25,23,2,23,0.20
2013-1-25,36.5,23.7,13.1,9.6,-2.4,-11.9,58,32,19,30.26,29.99,29,5,30,0.00
2013-1-26,34.1,19.9,5.9,-0.1,-8.3,-11.9,51,30,19,30.40,30.24,21,3,21,0.00
2013-1-27,43.1,31.6,26.2,42.0,20.3,-8.4,96,67,21,30.29,29.81,23,5,23,0.22
2013-1-28,52.5,42.4,36.6,51.2,41.2,35.6,96,96,92,29.94,29.68,20,3,20,0.00
2013-1-29,60.4,50.4,35.2,56.8,48.0,34.2,96,92,83,29.69,29.46,29,6,29,0.61
2013-1-30,35.2,25.6,12.7,34.2,21.9,2.5,96,86,63,29.78,29.31,33,6,33,0.16
2013-1-31,15.4,6.7,-1.6,6.6,-6.8,-12.0,68,49,36,30.29,29.77,26,6,26,0.02
2013-2-1,18.8,4.0,-5.0,6.9,-7.3,-12.0,59,37,19,30.40,30.09,18,2,18,0.00
2013-2-2,23.9,18.0,13.8,16.1,5.7,-1.9,76,59,44,30.12,29.98,20,2,21,0.00
2013-2-3,23.7,19.4,14.9,13.8,5.9,-0.7,77,56,38,30.11,29.93,24,3,27,0.00
2013-2-4,29.1,23.4,15.9,15.3,9.3,3.5,61,54,48,29.98,29.78,21,1,21,0.00
2013-2-5,35.9,27.1,15.6,24.5,16.8,4.7,74,65,54,30.10,29.81,25,2,25,0.02
2013-2-6,46.9,33.9,20.1,29.5,22.3,13.2,79,63,48,30.18,30.01,28,2,28,0.02
2013-2-7,37.2,35.0,30.9,35.6,32.3,26.4,96,90,72,30.08,29.87,20,2,20,0.57
2013-2-8,31.1,27.6,24.9,26.5,18.1,15.2,83,67,61,30.35,30.07,59,3,59,0.00
2013-2-9,37.9,29.1,24.0,26.1,20.3,15.2,81,70,52,30.36,29.98,28,4,28,0.00
2013-2-10,50.7,40.7,31.4,47.4,34.9,24.8,96,81,46,29.99,29.39,33,6,33,0.35
2013-2-11,36.3,31.1,26.2,24.9,16.4,13.7,63,54,49,30.09,29.55,42,12,43,0.00
2013-2-12,37.5,29.5,23.7,21.1,15.5,5.5,68,56,35,30.13,29.89,17,3,44,0.00
2013-2-13,45.5,35.4,25.7,27.0,22.9,18.1,75,61,44,29.89,29.70,16,2,18,0.00
2013-2-14,42.9,36.7,28.5,26.2,23.9,17.0,74,60,40,30.04,29.67,30,6,30,0.00
2013-2-15,32.3,23.4,15.9,20.5,0.0,-11.2,71,38,19,30.24,30.04,23,5,23,0.00
2013-2-16,24.6,17.1,10.2,3.7,-1.2,-10.2,56,44,22,30.24,30.14,21,2,21,0.00
2013-2-17,39.3,25.0,12.0,16.0,3.0,-4.0,56,41,19,30.17,29.83,24,4,24,0.00
2013-2-18,56.6,36.4,15.9,38.8,24.1,0.0,87,62,41,29.84,29.51,33,7,37,0.08
2013-2-19,19.5,11.7,3.7,4.3,-5.8,-12.0,59,45,4,30.29,29.78,30,8,30,0.00
2013-2-20,24.2,12.5,0.5,3.7,-4.3,-12.0,53,44,36,30.41,30.28,17,4,17,0.00
2013-2-21,27.1,20.7,13.1,20.0,9.6,0.3,83,62,49,30.35,29.88,36,6,44,0.00
2013-2-22,31.4,25.8,22.6,26.8,18.6,12.6,86,74,60,29.96,29.76,23,5,23,0.00
2013-2-23,32.5,24.2,17.9,14.6,10.1,7.4,65,55,42,29.98,29.92,22,4,22,0.04
2013-2-24,40.8,26.7,13.6,18.7,11.9,-0.1,73,56,19,30.11,29.98,12,1,12,0.08
2013-2-25,42.9,32.4,22.2,23.4,19.8,15.0,78,61,39,30.12,29.89,28,3,28,0.00
2013-2-26,34.8,32.2,29.6,27.7,24.0,20.2,87,72,55,29.89,29.56,37,5,37,0.00
2013-2-27,32.5,30.0,27.5,28.5,25.5,22.5,86,83,79,29.83,29.64,18,2,18,0.02
2013-2-28,35.0,31.7,29.1,27.5,24.9,22.6,85,76,65,30.09,29.83,28,3,28,0.10
2013-3-1,32.1,29.1,23.9,24.8,15.1,11.2,83,57,46,30.18,30.08,24,8,24,0.02
2013-3-2,32.3,26.5,13.6,14.6,5.5,-9.7,53,41,19,30.26,30.17,15,7,15,0.06
2013-3-3,37.7,23.0,7.1,10.7,-2.0,-11.5,65,38,19,30.18,30.04,12,1,12,0.02
2013-3-4,38.1,29.0,23.1,20.6,12.7,-6.8,67,51,25,30.06,29.89,28,6,29,0.02
2013-3-5,31.2,28.9,26.6,24.3,21.4,17.8,83,73,63,30.14,29.87,28,5,28,0.02
2013-3-6,26.9,24.3,19.2,17.8,12.8,10.4,69,61,56,30.34,30.13,23,5,23,0.02
2013-3-7,37.2,26.7,19.9,18.5,13.4,8.8,66,57,42,30.40,30.33,13,1,13,0.04
2013-3-8,44.9,33.3,22.2,26.3,20.1,13.8,71,59,40,30.40,30.20,28,4,28,0.02
2013-3-9,42.4,37.7,34.7,39.7,32.5,25.4,91,81,67,30.20,29.76,23,2,24,0.39
2013-3-10,46.2,42.8,36.1,45.1,41.5,35.1,96,95,89,29.76,29.56,20,0,20,0.98
2013-3-11,36.3,32.5,27.8,35.3,29.1,16.5,96,88,62,29.88,29.60,28,4,28,0.04
2013-3-12,34.1,27.5,23.3,26.9,17.0,9.7,79,65,48,30.12,29.88,28,8,28,0.00
2013-3-13,34.5,25.9,19.0,11.1,3.4,-9.1,62,42,19,30.35,30.12,26,5,27,0.00
2013-3-14,49.1,34.0,21.3,22.6,13.0,3.1,61,45,19,30.34,30.05,20,2,20,0.02
2013-3-15,47.3,34.2,29.6,30.6,26.0,22.5,79,72,43,30.06,29.71,28,2,28,0.00
2013-3-16,38.6,34.1,29.6,31.0,24.5,15.0,89,69,47,30.14,29.71,28,1,28,0.00
2013-3-17,36.8,30.8,23.9,19.2,11.9,-2.5,58,46,19,30.19,29.91,25,6,25,0.00
2013-3-18,35.9,28.6,18.8,30.8,18.4,-0.7,84,66,40,29.91,29.67,28,6,28,0.06
2013-3-19,32.9,22.6,14.1,7.9,-3.5,-11.9,46,33,19,30.16,29.89,28,9,28,0.02
2013-3-20,25.1,17.8,10.7,7.2,-9.4,-11.8,50,27,19,30.21,30.09,33,10,33,0.00
2013-3-21,34.1,21.3,-3.5,10.8,-6.8,-11.9,52,30,19,30.11,30.00,17,2,17,0.00
2013-3-22,44.2,29.7,15.9,10.2,1.2,-8.8,57,32,19,30.07,29.99,12,1,12,0.00
2013-3-23,46.0,35.2,25.8,18.1,5.2,-3.3,54,30,19,30.11,29.98,20,2,20,0.00
2013-3-24,33.2,29.9,27.8,25.8,22.9,9.8,87,75,37,30.02,29.74,28,1,28,0.04
2013-3-25,36.5,31.3,27.6,24.6,17.7,13.7,87,58,42,30.15,29.83,27,5,27,0.12
2013-3-26,40.2,33.2,24.0,19.9,14.5,-1.4,65,48,19,30.29,30.14,27,5,27,0.02
2013-3-27,47.6,37.1,28.0,21.0,11.1,-0.1,66,38,19,30.35,30.27,15,2,15,0.00
2013-3-28,55.2,41.0,26.4,24.7,15.0,6.2,71,39,19,30.36,30.24,28,1,28,0.00
2013-3-29,59.3,47.4,33.4,27.6,20.5,11.3,66,38,19,30.30,30.19,12,1,12,0.00
2013-3-30,55.7,47.3,38.3,42.4,31.1,0.0,82,54,40,30.20,29.87,44,3,44,0.00
2013-3-31,55.2,45.5,33.8,43.8,30.4,12.0,96,61,19,29.99,29.82,29,5,29,0.00
2013-4-1,39.5,32.0,25.1,15.2,5.6,-7.0,60,36,19,30.24,29.99,36,7,36,0.00
2013-4-2,44.6,31.6,21.7,17.2,5.9,-6.3,60,37,19,30.33,30.23,25,3,25,0.00
2013-4-3,51.4,36.5,22.1,12.0,5.7,-3.7,53,30,19,30.44,30.27,19,1,19,0.00
2013-4-4,60.9,46.7,33.4,31.1,10.0,-4.4,52,24,19,30.27,29.99,16,2,16,0.00
2013-4-5,57.7,46.4,33.2,27.5,16.5,4.2,57,34,19,30.22,30.02,20,4,20,0.00
2013-4-6,69.4,54.3,39.9,46.4,22.6,1.0,71,32,19,30.02,29.59,29,7,29,0.06
2013-4-7,67.6,52.5,38.3,41.8,33.7,23.9,77,53,19,29.95,29.72,28,3,28,0.00
2013-4-8,73.0,61.0,48.5,53.7,45.3,34.0,93,60,34,29.87,29.52,25,2,25,0.70
2013-4-9,75.5,57.0,44.0,55.9,47.8,38.9,86,73,46,29.90,29.76,29,5,39,0.06
2013-4-10,44.0,40.3,37.0,39.8,37.5,34.5,94,90,82,30.02,29.65,34,6,34,1.47
2013-4-11,47.6,41.5,36.5,45.8,38.6,28.0,96,90,71,29.73,29.59,29,4,29,0.06
2013-4-12,40.2,37.5,35.4,34.4,28.9,25.3,87,71,57,29.91,29.59,23,6,25,0.00
2013-4-13,50.9,42.2,33.2,28.4,24.4,19.8,76,51,35,29.99,29.89,22,5,22,0.35
2013-4-14,75.3,56.9,40.6,50.2,35.3,6.3,82,49,7,29.94,29.53,35,8,35,0.47
2013-4-15,63.3,50.6,40.1,52.8,39.7,24.1,93,70,24,30.03,29.65,20,3,24,0.08
2013-4-16,52.7,44.8,34.1,35.7,29.7,26.4,83,57,39,30.21,29.98,14,3,14,0.35
2013-4-17,52.3,45.1,40.1,51.2,38.3,28.4,96,78,48,30.23,29.69,29,6,29,1.45
2013-4-18,62.2,51.2,36.5,59.7,47.7,18.7,96,88,47,29.80,29.40,28,6,32,1.20
2013-4-19,38.3,35.3,33.4,27.1,23.0,0.0,70,61,50,30.01,29.58,31,10,31,1.12
2013-4-20,49.1,35.4,28.0,26.0,18.4,3.4,76,55,19,30.28,30.01,14,2,14,1.12
2013-4-21,60.4,52.7,39.3,33.8,27.8,20.9,50,39,30,30.41,30.20,29,7,29,1.12
2013-4-22,69.6,58.9,48.7,41.3,27.1,19.8,61,32,19,30.24,29.98,22,5,22,1.12
2013-4-23,54.3,41.9,37.0,46.3,35.6,28.6,86,78,63,30.03,29.94,23,5,29,0.24
2013-4-24,53.7,43.2,33.4,28.6,19.5,6.1,69,43,19,30.11,30.00,19,4,24,1.12
2013-4-25,56.4,45.6,34.5,35.7,18.2,5.0,81,39,19,30.29,30.08,33,5,33,0.02
2013-4-26,68.1,56.4,44.7,40.3,32.2,20.6,56,40,26,30.27,30.19,36,5,36,0.00
2013-4-27,66.5,57.2,46.5,44.6,39.2,34.0,83,54,32,30.24,29.98,28,1,28,1.12
2013-4-28,74.1,61.9,49.8,46.9,39.7,27.9,81,49,19,29.99,29.80,12,0,15,1.12
2013-4-29,81.1,66.5,51.9,53.1,47.2,43.9,80,53,31,29.88,29.67,29,4,29,1.12
2013-4-30,67.6,66.0,65.1,55.0,53.6,52.4,66,64,62,29.75,29.68,20,3,20,0.00
2013-5-1,84.9,74.0,58.1,49.5,41.4,30.7,58,33,19,30.14,29.90,16,3,17,1.12
2013-5-2,58.1,47.9,38.6,41.3,36.0,32.8,89,64,46,30.26,30.12,29,6,33,0.13
2013-5-3,52.1,41.3,36.3,51.0,39.4,33.1,96,93,88,30.18,29.86,28,2,28,1.71
2013-5-4,70.5,59.4,51.9,56.1,53.0,46.7,96,82,44,30.04,29.86,26,2,26,0.20
2013-5-5,74.8,63.4,52.5,58.8,45.4,31.5,96,59,21,30.04,29.95,44,1,44,1.12
2013-5-6,76.6,65.9,53.0,46.8,39.0,28.9,74,42,19,30.06,29.97,15,1,16,0.00
2013-5-7,79.7,68.7,54.3,48.8,37.7,28.0,77,37,19,30.05,29.97,13,0,13,0.00
2013-5-8,80.2,68.9,56.1,52.7,40.3,30.9,66,39,19,30.04,29.95,8,0,8,0.00
2013-5-9,71.0,63.2,59.5,59.9,56.5,52.0,96,80,52,29.96,29.79,28,0,28,0.49
2013-5-10,60.0,53.2,48.9,58.9,46.9,42.2,96,80,67,30.00,29.80,28,1,28,0.00
2013-5-11,56.8,51.5,41.7,50.0,27.1,5.0,96,48,19,30.13,29.91,30,5,30,1.12
2013-5-12,58.1,47.5,36.1,25.1,17.3,5.9,58,33,19,30.19,30.09,20,3,21,1.12
2013-5-13,68.7,56.8,39.5,38.7,26.3,16.4,77,35,19,30.18,29.93,14,1,14,0.00
2013-5-14,91.4,74.4,56.8,51.6,43.3,29.8,57,35,19,29.93,29.64,23,3,23,0.00
2013-5-15,83.3,75.8,66.9,44.4,37.9,30.9,41,26,19,29.87,29.68,23,2,23,1.12
2013-5-16,84.0,72.2,58.4,48.9,40.3,31.5,60,34,19,29.95,29.85,11,0,17,1.12
2013-5-17,82.7,72.8,63.1,58.1,51.3,42.6,70,49,25,29.99,29.89,22,1,22,0.00
2013-5-18,82.0,72.8,63.5,62.3,56.7,51.0,87,60,35,30.02,29.88,28,1,28,1.12
2013-5-19,87.2,74.1,65.1,68.3,59.3,50.4,87,62,39,29.91,29.62,28,2,28,1.12
2013-5-20,81.5,70.8,62.2,60.9,55.5,50.5,89,61,35,29.76,29.53,28,3,28,0.04
2013-5-21,77.3,69.4,62.4,60.0,52.7,0.0,85,58,35,29.71,29.63,25,3,25,0.00
2013-5-22,67.2,62.5,58.6,55.2,50.7,46.7,81,66,49,29.79,29.64,11,1,14,0.00
2013-5-23,58.6,57.3,54.3,56.2,50.8,49.4,96,79,72,30.05,29.79,28,4,28,0.04
2013-5-24,68.1,59.2,43.5,49.4,33.1,20.4,72,42,19,30.44,30.05,14,2,14,0.04
2013-5-25,59.3,51.7,48.0,48.9,42.7,31.0,91,73,34,30.39,30.22,12,0,12,0.94
2013-5-26,58.2,53.3,49.4,57.1,49.8,42.9,96,88,74,30.26,30.02,20,0,20,3.41
2013-5-27,71.4,63.1,56.6,65.0,59.7,55.5,96,89,67,30.03,29.78,28,1,28,1.30
2013-5-28,77.3,69.9,63.3,67.8,63.3,50.0,96,80,45,29.85,29.62,24,3,25,0.24
2013-5-29,83.6,73.0,62.2,63.6,59.5,55.8,88,65,39,29.90,29.73,20,3,24,0.04
2013-5-30,82.7,71.5,62.7,66.6,59.9,53.1,89,68,45,29.85,29.68,33,4,37,0.55
2013-5-31,74.3,68.3,62.9,64.6,59.4,50.3,90,74,48,29.81,29.68,30,3,30,0.02
2013-6-1,75.7,68.7,63.3,65.2,57.5,45.7,89,69,35,29.79,29.66,20,2,20,0.04
2013-6-2,63.3,59.1,53.0,56.0,45.5,39.2,83,62,43,30.04,29.79,14,1,14,0.00
2013-6-3,69.4,60.5,51.9,48.6,41.6,34.1,83,53,28,30.12,30.01,11,0,13,0.04
2013-6-4,71.7,64.4,54.8,48.2,42.3,36.7,66,46,29,30.16,30.01,18,0,18,0.00
2013-6-5,66.5,62.9,58.1,58.0,52.4,44.9,88,69,50,30.06,29.92,8,0,10,0.06
2013-6-6,65.6,60.3,56.1,57.4,54.7,52.3,96,82,64,29.94,29.87,11,0,11,0.39
2013-6-7,71.9,63.5,57.5,53.2,48.3,43.6,79,60,38,29.98,29.90,15,0,15,0.00
2013-6-8,72.5,62.2,57.9,51.1,46.2,43.3,70,57,39,29.97,29.92,9,0,44,0.00
2013-6-9,72.3,68.5,64.2,62.8,58.1,52.2,84,71,52,29.86,29.76,19,1,19,0.08
2013-6-10,77.1,67.3,59.3,62.3,57.0,37.4,96,72,43,29.89,29.75,28,0,28,0.00
2013-6-11,85.4,74.7,62.7,64.2,59.5,54.3,91,62,36,29.93,29.80,28,1,28,0.00
2013-6-12,89.4,80.2,71.7,67.4,64.2,59.0,84,60,39,29.89,29.62,17,2,17,0.00
2013-6-13,81.8,73.5,63.8,63.5,50.2,34.0,80,48,24,30.03,29.70,23,1,23,0.00
2013-6-14,79.1,71.0,61.5,54.5,49.9,46.3,70,48,32,30.14,29.94,12,0,12,0.00
2013-6-15,80.0,73.0,66.7,66.4,59.8,52.2,79,64,51,30.03,29.85,13,1,13,0.00
2013-6-16,83.4,74.7,66.3,63.3,58.5,50.4,84,60,37,29.97,29.90,8,0,12,0.00
2013-6-17,86.5,77.5,66.9,63.7,54.0,38.2,84,49,19,29.97,29.86,10,0,10,0.00
2013-6-18,80.2,72.0,62.0,59.7,50.0,45.6,70,47,30,30.05,29.89,18,2,18,0.00
2013-6-19,83.1,71.5,58.6,50.0,45.6,40.4,59,41,23,30.12,30.03,14,0,14,0.00
2013-6-20,88.7,78.9,65.8,56.3,50.7,44.5,59,39,22,30.11,30.01,15,1,16,0.00
2013-6-21,81.5,77.0,68.7,65.8,60.4,54.4,79,57,45,30.13,29.92,18,2,18,0.31
2013-6-22,91.5,80.3,71.9,68.0,63.7,0.0,72,58,33,30.08,29.90,21,3,24,0.00
2013-6-23,85.2,77.1,70.7,64.0,59.1,54.0,68,55,40,30.01,29.87,17,2,17,0.00
2013-6-24,78.0,69.2,65.6,67.5,64.8,59.9,96,87,60,30.12,29.90,11,0,11,3.47
2013-6-25,87.2,77.9,68.0,69.5,66.7,61.5,92,70,49,29.91,29.78,28,1,28,0.00
2013-6-26,84.5,76.7,67.4,71.1,66.5,61.0,92,72,52,29.80,29.72,13,0,15,0.49
2013-6-27,86.7,78.8,70.5,71.5,63.2,56.5,83,61,41,29.87,29.78,15,1,15,0.00
2013-6-28,82.2,75.2,68.7,58.5,53.4,47.8,67,48,31,29.83,29.69,21,2,21,0.00
2013-6-29,74.4,67.5,64.0,65.6,59.3,54.7,88,76,53,29.83,29.67,16,0,16,0.74
2013-6-30,78.4,70.7,63.1,57.7,52.5,-2.0,77,55,7,30.03,29.83,17,1,17,0.00
2013-7-1,78.9,70.0,58.4,48.8,43.1,32.2,66,41,19,30.10,30.02,18,1,18,0.00
2013-7-2,78.6,70.3,60.4,51.5,45.8,39.4,65,43,27,30.11,30.03,10,0,11,0.00
2013-7-3,75.0,67.2,57.2,51.5,47.1,41.0,76,50,31,30.09,30.02,9,0,9,0.00
2013-7-4,84.2,74.0,62.7,57.5,51.0,44.2,70,47,26,30.08,30.00,44,0,44,0.00
2013-7-5,85.4,77.4,68.0,57.8,53.6,47.8,67,46,28,30.07,29.99,59,1,59,0.00
2013-7-6,86.9,76.8,68.3,62.6,57.7,52.5,74,53,32,30.04,29.94,11,1,12,2.47
2013-7-7,88.8,80.3,71.0,63.1,61.0,0.0,70,53,36,29.99,29.93,12,1,18,0.00
2013-7-8,87.4,79.4,71.9,68.7,65.6,60.5,84,64,48,30.00,29.96,17,2,17,0.24
2013-7-9,88.3,80.3,73.2,72.8,70.0,65.1,84,71,54,30.02,29.88,18,0,18,0.02
2013-7-10,82.7,77.9,68.1,73.6,60.3,47.1,85,57,30,30.04,29.87,12,1,12,0.00
2013-7-11,80.9,72.4,62.4,58.3,50.8,43.2,78,50,27,30.12,30.04,14,0,14,0.00
2013-7-12,82.7,72.9,62.7,57.0,49.5,42.6,76,47,26,30.16,30.06,9,0,10,0.06
2013-7-13,82.7,74.1,63.3,56.3,52.6,49.1,67,48,32,30.15,30.07,10,0,10,0.00
2013-7-14,87.4,78.8,69.0,63.9,58.2,53.9,72,51,34,30.19,30.11,13,0,13,0.00
2013-7-15,89.9,82.0,73.4,67.8,64.8,59.9,77,58,37,30.26,30.18,11,0,11,0.00
2013-7-16,90.3,83.4,16.0,70.6,67.0,1.5,80,59,42,30.30,30.23,10,0,10,0.08
2013-7-17,92.3,84.6,75.9,69.5,65.8,60.4,76,55,36,30.32,30.18,9,0,9,0.00
2013-7-18,92.6,85.0,75.9,70.7,66.3,60.4,80,56,35,30.21,29.97,11,0,17,2.47
2013-7-19,93.0,84.6,77.1,66.9,62.6,57.4,65,49,31,29.97,29.80,13,1,20,0.00
2013-7-20,87.2,78.8,68.9,61.7,56.1,49.1,73,48,31,29.95,29.86,11,0,11,2.47
2013-7-21,84.3,76.3,69.9,65.7,59.9,54.4,74,58,41,29.95,29.85,14,0,14,0.00
2013-7-22,87.4,76.2,67.6,68.5,63.9,54.3,88,68,43,29.90,29.72,28,0,28,0.29
2013-7-23,76.6,71.1,66.0,64.4,56.6,48.4,90,63,38,29.99,29.78,28,1,28,0.00
2013-7-24,76.1,68.1,60.4,54.5,49.2,44.2,77,53,33,30.09,29.98,10,0,11,0.00
2013-7-25,80.9,75.3,61.5,55.1,53.2,51.5,78,47,37,30.11,30.02,10,0,10,0.00
2013-7-26,78.2,68.8,62.2,68.1,59.3,40.4,91,74,38,30.06,29.90,28,0,28,0.63
2013-7-27,65.3,60.1,55.9,53.2,46.0,39.7,83,61,41,30.00,29.95,12,0,12,0.00
2013-7-28,70.1,62.4,56.1,50.1,45.4,33.4,70,55,39,30.06,29.92,10,0,10,0.00
2013-7-29,75.5,65.9,53.9,52.7,47.6,41.7,82,54,31,30.16,30.06,4,0,5,0.00
2013-7-30,69.0,66.5,62.9,65.9,59.1,47.9,96,79,47,30.14,30.04,7,0,7,0.41
2013-7-31,80.2,70.8,64.9,66.2,61.8,56.5,96,76,45,30.07,29.99,28,0,28,0.00
2013-8-1,80.9,72.6,62.4,60.5,54.3,44.2,82,56,29,30.07,29.93,8,0,8,0.00
2013-8-2,83.6,75.3,68.7,63.3,58.4,55.9,70,56,41,29.99,29.88,5,0,5,0.04
2013-8-3,79.5,71.4,63.1,58.7,50.1,39.2,81,50,27,30.15,29.99,8,0,8,0.00
2013-8-4,78.2,69.8,57.5,52.8,46.9,40.0,77,47,27,30.21,30.09,8,0,8,0.00
2013-8-5,72.6,67.6,62.4,65.5,58.1,49.2,91,72,54,30.10,29.86,28,0,28,0.45
2013-8-6,84.2,75.1,68.3,73.1,67.5,65.2,96,79,58,29.91,29.82,11,0,11,0.00
2013-8-7,85.6,77.5,68.7,71.8,62.7,54.2,90,63,37,29.98,29.79,28,0,28,0.00
2013-8-8,80.0,72.1,62.7,59.1,55.3,50.5,79,58,36,30.03,29.96,11,0,12,0.00
2013-8-9,80.2,73.2,66.3,62.0,58.9,54.0,84,62,47,30.09,29.99,28,0,28,0.00
2013-8-10,80.2,70.1,59.3,55.7,50.2,41.3,80,53,27,30.18,30.09,10,0,10,0.00
2013-8-11,82.7,73.3,63.5,59.4,55.4,0.0,76,55,38,30.15,30.02,12,0,12,0.00
2013-8-12,82.5,74.5,66.5,62.4,57.8,51.0,71,57,36,30.04,29.93,13,0,13,0.00
2013-8-13,73.4,66.1,58.8,57.5,46.5,35.9,80,53,27,30.17,29.99,12,0,12,0.00
2013-8-14,74.6,64.1,53.4,49.6,43.4,32.9,74,50,22,30.23,30.14,6,0,8,0.00
2013-8-15,75.3,66.4,59.7,51.8,47.5,0.0,70,53,30,30.18,30.11,5,0,5,0.00
2013-8-16,79.8,68.6,57.2,52.6,47.7,40.0,78,51,26,30.20,30.14,10,0,10,0.00
2013-8-17,79.8,69.6,-11.8,55.8,49.3,41.7,81,52,26,30.23,30.15,11,0,11,0.00
2013-8-18,80.7,71.0,59.3,58.3,51.9,43.9,84,54,29,30.22,30.10,8,0,9,0.00
2013-8-19,83.3,73.9,63.8,59.9,56.6,53.0,78,56,37,30.13,30.02,13,0,13,0.00
2013-8-20,86.3,77.4,68.7,61.0,57.6,52.0,72,53,31,30.10,30.01,44,1,44,0.00
2013-8-21,88.5,79.8,71.0,62.0,59.7,57.5,70,52,36,30.08,29.97,15,1,15,0.00
2013-8-22,78.2,75.0,70.5,63.1,61.0,58.4,76,62,53,30.16,30.00,13,0,13,0.00
2013-8-23,84.0,74.6,65.3,64.9,57.3,48.0,89,59,30,30.17,30.09,28,0,28,0.00
2013-8-24,87.9,77.2,65.8,62.6,56.2,47.0,62,49,37,30.23,30.14,11,0,11,0.00
2013-8-25,89.4,80.4,71.7,62.8,59.1,53.1,68,50,30,30.24,30.13,20,1,20,0.00
2013-8-26,92.3,81.1,70.1,66.3,61.7,57.2,72,53,32,30.16,29.99,9,0,9,0.00
2013-8-27,94.6,84.6,74.8,66.6,61.1,55.3,72,48,29,30.02,29.88,21,1,21,0.00
2013-8-28,93.2,84.2,76.6,70.2,63.2,0.0,64,50,40,30.02,29.90,12,0,12,0.00
2013-8-29,88.3,80.4,-11.0,68.3,65.0,60.3,71,60,46,30.08,29.98,16,0,16,0.00
2013-8-30,95.7,82.6,75.3,74.5,67.0,60.3,84,62,32,29.98,29.79,19,0,19,27.59
2013-8-31,86.0,78.4,71.7,65.7,62.2,57.6,77,59,45,29.85,29.78,18,1,18,0.00
2013-9-1,88.7,77.1,68.1,68.4,59.9,0.0,88,59,29,29.90,29.76,28,0,28,0.00
2013-9-2,77.0,68.0,59.1,57.5,50.6,43.1,84,57,31,30.03,29.89,44,0,44,0.00
2013-9-3,77.7,65.2,52.8,54.3,48.3,44.2,82,57,32,30.11,30.03,28,0,28,0.08
2013-9-4,86.3,71.6,57.5,57.7,52.8,46.6,86,56,28,30.16,30.05,28,0,28,0.00
2013-9-5,87.4,76.5,67.1,61.5,55.7,51.7,73,50,32,30.21,30.12,28,0,28,0.00
2013-9-6,87.2,75.5,62.9,55.5,50.3,45.2,55,43,24,30.19,30.00,13,1,28,0.00
2013-9-7,90.5,80.2,69.0,61.4,57.4,54.7,63,47,32,30.01,29.87,28,1,28,0.00
2013-9-8,86.7,79.2,71.9,65.0,62.1,59.2,75,57,40,29.99,29.88,42,1,42,0.00
2013-9-9,96.6,83.4,71.7,68.7,60.9,51.0,87,53,22,29.92,29.81,28,1,28,0.02
2013-9-10,95.1,84.7,73.2,62.4,51.7,43.5,58,34,19,30.02,29.90,28,1,28,0.00
2013-9-11,82.0,78.2,75.9,57.8,56.3,53.0,53,47,37,30.04,30.00,10,0,10,0.00
2013-9-12,78.2,72.4,59.7,57.3,38.2,30.2,72,31,19,30.14,30.05,13,2,14,0.00
2013-9-13,71.9,61.1,53.7,43.0,34.9,22.1,67,41,19,30.23,30.11,28,1,28,0.00
2013-9-14,72.5,60.9,50.9,42.4,35.0,26.5,69,41,19,30.19,29.99,28,1,28,0.00
2013-9-15,62.6,59.8,55.7,57.8,48.9,34.2,89,70,35,30.20,29.96,11,0,11,0.47
2013-9-16,69.6,59.6,53.9,52.2,45.6,36.9,91,63,31,30.37,30.20,28,1,28,0.00
2013-9-17,70.5,61.2,51.0,55.3,48.2,41.6,83,63,45,30.31,30.06,14,0,14,0.00
2013-9-18,85.2,71.8,62.4,66.5,58.5,0.0,84,64,45,30.07,29.86,28,1,28,0.06
2013-9-19,92.6,80.8,70.7,66.2,60.4,50.5,83,55,25,29.90,29.74,29,3,29,0.04
2013-9-21,68.9,63.8,55.0,45.6,41.3,38.1,70,45,34,29.96,29.90,8,1,9,0.00
2013-9-22,70.5,60.6,51.4,46.7,41.9,36.2,77,53,30,30.06,29.96,28,0,28,0.04
2013-9-23,74.3,62.7,51.2,46.2,41.5,35.5,70,49,26,30.07,29.96,16,1,16,0.04
2013-9-24,75.3,64.1,53.0,47.9,43.6,39.9,73,49,30,30.00,29.88,28,1,28,0.00
2013-9-25,76.6,65.2,54.3,49.5,44.7,39.6,80,51,27,29.97,29.89,10,1,11,0.98
2013-9-26,83.3,68.0,55.2,53.2,48.5,42.8,81,53,30,30.03,29.94,16,1,16,0.04
2013-9-27,84.3,71.2,60.2,53.3,43.5,36.6,54,39,20,30.10,29.99,15,1,18,0.00
2013-9-28,80.0,67.1,54.8,64.4,52.6,42.4,91,62,39,30.03,29.88,42,2,42,0.04
2013-9-29,71.2,59.9,48.5,53.7,43.0,25.8,96,61,19,30.10,29.99,57,0,57,0.04
2013-9-30,77.1,64.3,52.5,51.8,40.8,30.9,72,46,19,30.00,29.83,28,1,28,0.04
2013-10-1,83.3,70.3,59.7,62.5,55.5,51.6,92,63,36,29.98,29.87,17,1,42,0.00
2013-10-2,85.6,73.3,63.8,58.5,50.2,36.2,81,48,23,30.08,29.93,28,1,28,0.04
2013-10-3,72.6,69.4,67.6,69.3,64.1,56.6,93,84,60,29.94,29.88,8,0,8,0.06
2013-10-4,78.9,74.6,68.9,70.1,62.9,59.9,91,68,55,29.98,29.86,28,1,28,0.33
2013-10-5,75.2,68.3,51.9,68.2,58.0,37.7,87,70,51,29.89,29.80,28,1,28,0.00
2013-10-6,52.7,47.8,43.3,43.3,38.2,31.4,88,70,47,29.84,29.74,28,0,28,0.00
2013-10-7,72.1,57.5,43.5,48.2,39.8,24.8,96,59,19,30.08,29.82,57,1,57,0.06
2013-10-8,77.9,63.5,50.3,46.1,39.7,28.0,83,48,19,30.16,30.07,28,1,28,0.00
2013-10-9,75.3,62.9,52.1,44.9,38.2,26.5,74,44,19,30.19,30.09,28,1,28,0.06
2013-10-10,77.3,63.4,51.0,50.0,45.0,41.6,78,54,30,30.15,30.00,42,0,42,0.06
2013-10-11,77.0,67.2,56.6,54.9,48.7,42.5,84,55,30,30.01,29.85,28,2,28,0.06
2013-10-12,69.2,63.7,53.0,54.9,38.5,20.8,74,43,19,30.21,29.88,28,2,28,0.06
2013-10-13,67.8,54.5,42.2,34.8,26.6,17.4,59,37,19,30.42,30.21,57,0,57,0.06
2013-10-14,66.5,54.0,41.7,39.0,31.2,22.7,73,45,21,30.39,30.04,28,1,28,0.06
2013-10-15,65.8,57.9,50.9,58.1,42.9,27.7,89,59,35,30.04,29.80,42,3,44,0.00
2013-10-16,52.3,50.5,48.7,42.7,40.1,36.7,77,67,57,29.99,29.88,28,2,28,0.00
2013-10-17,60.4,51.7,46.7,43.9,35.8,17.2,86,59,19,29.96,29.83,12,1,12,0.00
2013-10-18,50.7,46.6,43.5,38.8,33.4,28.9,79,60,47,30.01,29.86,28,1,28,0.06
2013-10-19,54.8,46.3,39.2,33.2,28.6,21.1,65,51,28,29.96,29.80,28,1,28,0.06
2013-10-20,60.9,50.4,39.5,38.9,34.9,29.8,77,57,37,29.86,29.72,28,1,28,0.06
2013-10-21,52.7,42.2,35.7,36.8,19.9,2.9,65,44,19,30.02,29.84,28,2,28,0.06
2013-10-22,36.5,34.7,32.1,34.5,29.2,-2.5,93,81,19,30.01,29.90,8,0,8,0.33
2013-10-23,42.4,36.5,29.3,32.4,26.1,17.6,90,68,38,30.07,29.98,28,1,28,0.06
2013-10-24,39.3,35.2,29.4,31.7,15.4,9.2,81,45,31,30.34,30.06,28,1,28,0.00
2013-10-25,53.7,41.5,28.2,29.2,16.4,4.2,77,41,19,30.40,30.05,28,2,28,0.06
2013-10-26,53.0,46.8,38.3,29.0,18.0,4.7,49,33,19,30.12,29.91,28,3,28,0.06
2013-10-27,57.5,41.5,30.7,28.9,21.2,14.3,71,48,19,30.10,29.95,28,1,28,0.00
2013-10-29,55.9,53.6,52.5,45.0,35.9,32.1,75,52,41,30.13,30.09,11,0,12,0.00
2013-10-30,59.9,55.4,52.7,58.8,53.4,-8.9,96,93,7,30.09,29.74,11,0,57,1.65
2013-10-31,62.7,59.2,50.3,61.5,58.0,49.2,96,96,96,29.74,29.38,12,2,12,0.19
2013-11-3,56.8,50.2,45.3,29.2,25.6,20.8,52,39,26,30.23,30.12,28,2,28,0.00
2013-11-4,46.7,46.1,45.5,31.5,30.2,28.9,57,54,52,30.14,30.07,28,2,28,0.00
2013-11-5,55.9,53.3,51.6,53.7,48.1,40.7,96,83,65,30.20,29.86,25,2,26,0.22
2013-11-6,56.8,44.2,32.7,55.7,36.6,20.8,96,76,48,30.23,29.77,16,3,28,0.28
2013-11-7,44.9,35.2,28.2,30.0,24.0,19.6,78,64,47,30.28,30.23,28,1,28,0.00
2013-11-8,48.7,34.7,28.5,27.7,22.4,7.9,77,62,19,30.30,30.14,28,1,28,0.00
2013-11-9,59.0,50.5,39.7,31.1,29.4,26.6,63,45,32,30.22,29.96,28,4,42,0.00
2013-11-10,51.2,40.7,29.8,27.4,23.2,18.8,70,51,30,30.40,30.19,9,1,9,0.00
2013-11-11,50.3,37.1,19.9,28.9,22.7,7.5,83,57,42,30.59,30.08,30,2,30,0.02
2013-11-12,29.6,21.7,-10.1,12.5,4.8,-7.3,58,48,21,30.76,30.58,28,1,28,0.00
2013-11-13,43.5,30.9,17.7,7.8,2.5,-4.0,63,34,19,30.60,30.13,28,4,28,0.00
2013-11-14,53.0,42.9,33.2,15.1,6.9,-3.3,43,23,19,30.13,29.90,28,4,28,0.00
2013-11-15,57.3,45.0,36.1,30.2,20.1,1.9,58,38,19,29.96,29.84,28,2,28,0.00
2013-11-16,60.8,53.3,41.9,52.6,46.1,29.9,85,77,58,29.85,29.49,42,7,42,0.02
2013-11-17,71.4,53.3,41.7,60.1,46.5,18.8,96,78,53,29.88,29.21,42,6,57,0.12
2013-11-18,44.7,38.0,28.5,34.2,25.0,19.2,80,61,40,30.29,29.87,17,3,17,0.00
2013-11-19,47.3,35.2,24.4,24.3,18.9,5.2,76,55,19,30.33,30.18,28,2,28,0.00
2013-11-20,39.0,36.4,34.3,35.9,27.9,22.7,91,72,54,30.19,30.01,28,3,28,0.47
2013-11-21,43.8,40.5,38.3,40.7,37.1,35.3,94,88,81,30.27,30.05,28,1,28,0.02
2013-11-22,38.8,30.8,19.2,35.6,23.1,10.1,91,73,57,30.52,30.27,28,3,28,0.04
2013-11-23,23.5,17.1,8.7,9.7,-1.7,-11.9,66,43,19,30.74,30.49,28,2,28,0.00
2013-11-24,28.7,17.0,5.9,1.7,-7.3,-11.9,59,36,19,30.72,30.32,44,2,44,0.00
2013-11-25,34.1,28.8,19.7,20.4,11.0,-7.4,64,47,22,30.32,30.08,28,3,28,0.00
2013-11-26,32.3,24.9,3.4,21.1,6.4,-11.9,73,48,19,30.26,30.07,29,4,29,0.00
2013-11-27,28.5,17.2,7.5,-0.2,-8.3,-11.9,50,33,19,30.33,30.17,28,1,28,0.00
2013-11-28,36.8,25.3,18.8,7.9,0.7,-11.3,56,36,19,30.49,30.11,28,2,28,0.00
2013-11-29,39.0,26.8,15.2,15.1,6.4,-4.8,70,45,19,30.58,30.32,28,1,28,0.00
2013-11-30,53.0,39.4,30.3,26.5,22.1,13.6,66,51,31,30.32,30.03,28,2,28,0.00
2013-12-1,52.5,38.9,29.6,28.1,23.0,18.2,76,55,29,30.13,29.95,11,0,28,0.00
2013-12-2,44.9,38.2,33.9,37.3,28.9,20.5,96,70,53,29.95,29.66,28,1,28,0.02
2013-12-3,49.6,42.2,36.5,48.5,40.8,33.5,96,95,87,29.67,29.59,12,1,12,0.00
2013-12-4,52.5,44.0,24.4,51.4,41.8,16.7,96,92,72,29.81,29.48,32,3,32,0.02
2013-12-5,24.4,17.9,14.0,16.7,2.2,-4.0,72,50,36,30.30,29.81,28,6,28,0.00
2013-12-6,17.0,10.4,5.1,-0.9,-8.7,-12.0,50,40,19,30.59,30.30,28,2,28,0.00
2013-12-7,17.7,8.3,-0.9,-7.9,-11.4,-11.9,53,33,19,30.73,30.55,28,1,28,0.00
2013-12-8,21.0,16.7,10.5,15.2,3.6,-11.9,81,56,19,30.56,29.98,28,2,28,0.00
2013-12-9,19.7,7.4,-2.5,14.5,-3.9,-11.8,80,50,19,30.26,29.98,42,4,42,0.00
2013-12-10,19.7,12.3,-2.7,14.4,-8.1,-12.0,92,37,19,30.27,29.99,28,4,28,0.00
2013-12-11,17.6,6.8,-4.5,6.2,-6.3,-12.0,68,39,19,30.59,30.24,28,2,28,0.00
2013-12-12,21.9,10.5,-3.8,4.7,-4.6,-12.0,61,46,34,30.54,30.18,28,2,28,0.00
2013-12-13,34.3,22.4,13.4,21.3,12.1,-11.5,82,65,19,30.18,30.01,28,2,28,0.04
2013-12-14,27.5,22.6,13.1,21.8,15.9,2.2,85,75,61,30.07,29.97,28,3,28,0.00
2013-12-15,13.2,10.8,5.7,2.3,-3.3,-7.6,62,52,43,30.13,30.04,28,2,28,0.00
2013-12-16,17.7,13.7,10.5,9.3,3.1,0.1,70,62,57,30.10,29.98,28,0,28,0.00
2013-12-17,37.7,27.1,17.0,22.4,13.6,4.9,82,57,19,30.18,30.02,28,6,28,0.08
2013-12-18,41.1,29.5,15.4,25.1,10.3,-6.3,64,48,19,30.17,29.79,28,3,28,0.00
2013-12-19,39.9,35.2,32.9,31.7,27.8,0.0,93,75,64,29.88,29.75,28,1,28,0.12
2013-12-20,32.9,28.0,24.9,31.9,25.6,22.6,96,91,87,29.86,29.74,28,1,28,0.06
2013-12-21,28.5,26.1,23.9,26.2,23.3,21.4,92,89,84,29.87,29.65,28,1,28,0.00
2013-12-22,30.2,23.2,12.9,25.9,17.5,3.7,92,79,66,30.21,29.66,28,0,28,0.00
2013-12-23,12.7,-0.2,-5.9,3.5,-10.5,-11.7,66,46,25,30.51,30.21,28,1,28,0.00
2013-12-24,16.7,1.5,-11.9,4.6,-8.6,-12.0,63,43,19,30.55,30.25,28,1,28,0.00
2013-12-25,25.1,21.4,16.7,18.6,12.7,2.5,77,69,53,30.25,30.12,28,1,28,0.00
2013-12-26,35.7,25.7,15.2,22.9,15.4,6.6,75,65,50,30.24,30.10,28,1,28,0.02
2013-12-27,41.9,32.6,21.0,27.0,21.3,15.5,80,64,45,30.26,30.09,28,2,28,0.10
2013-12-28,49.1,40.0,32.3,29.1,26.7,22.1,79,60,42,30.10,29.80,28,3,28,0.00
2013-12-29,42.6,17.7,-3.8,24.7,6.5,-12.0,79,58,36,30.28,29.78,28,6,28,0.00
2013-12-30,9.8,1.0,-8.8,-2.3,-9.7,-12.0,62,40,19,30.32,30.18,28,0,28,0.00
2013-12-31,13.6,5.5,-3.4,1.1,-5.7,-12.0,64,58,53,30.33,30.19,28,1,28,0.00
2014-1-1,13.4,9.3,5.3,3.8,-1.8,-5.9,66,60,55,30.25,30.18,28,3,28,0.00
2014-1-2,14.7,6.1,-5.6,-4.2,-8.3,-11.9,55,47,39,30.44,30.21,28,3,28,0.00